Weather History for Sparta, TN

Change the Weather History Date:

Sunday, July 28, 2013

  Actual Average (KCSV) Record (KCSV)
Temperature  
Mean Temperature 68 °F 75 °F  
Max Temperature 78 °F 84 °F 99 °F (1993)
Min Temperature 55 °F 65 °F 53 °F (1962)
Degree Days  
Heating Degree Days 0    
Month to date heating degree days  
Since 1 June heating degree days  
Since 1 July heating degree days  
Cooling Degree Days 2    
Month to date cooling degree days  
Year to date cooling degree days  
Since 1 June cooling degree days  
Growing Degree Days 18 (Base 50)    
Moisture  
Dew Point 58 °F    
Average Humidity 72    
Maximum Humidity 100    
Minimum Humidity 42    
Precipitation  
Precipitation 0.00 in 0.16 in 2.38 in (2010)
Month to date precipitation 4.66  
Year to date precipitation 33.64  
Sea Level Pressure  
Sea Level Pressure 30.05 in    
Wind  
Wind Speed 2 mph (NNW)    
Max Wind Speed 8 mph    
Max Gust Speed -    
Visibility 10 miles    
Events      
T = Trace of Precipitation, MM = Missing Value Source: NWS Daily Summary

Daily Weather History Graph

Daily Weather History Graph

Search for Another Location

Airport:

Trip Planner

Search our weather history database for the weather conditions in past years. The results will help you decide how hot, cold, wet, or windy it might be!

Date:

Astronomy

Jul. 28, 2013 Rise Set
Actual Time 5:46 AM CDT 7:50 PM CDT
Civil Twilight 5:17 AM CDT 8:18 PM CDT
Nautical Twilight 4:43 AM CDT 8:53 PM CDT
Astronomical Twilight 4:05 AM CDT 9:30 PM CDT
Moon 11:26 PM CDT (7/28) 12:13 PM CDT (7/28)
Length of Visible Light 15h 00m
Length of Day
14h 03m
Waning Gibbous, 60% of the Moon is Illuminated
Jul 28
Waning Gibbous
Jul 29
Last Quarter
Aug 6
New
Aug 14
First Quarter
Aug 20
Full

Hourly Weather History & Observations

Time (CDT) Temp. Dew Point Humidity Pressure Visibility Wind Dir Wind Speed Gust Speed Precip Events Conditions
12:35 AM 68.0 °F 66.2 °F 94% 29.96 in 6.0 mi Calm Calm - N/A   Mostly Cloudy
12:55 AM 69.8 °F 66.2 °F 88% 29.96 in 10.0 mi Calm Calm - N/A   Mostly Cloudy
1:15 AM 69.8 °F 66.2 °F 88% 29.96 in 10.0 mi Calm Calm - N/A   Unknown
1:35 AM 68.0 °F 66.2 °F 94% 29.97 in 10.0 mi Calm Calm - N/A   Mostly Cloudy
1:55 AM 68.0 °F 66.2 °F 94% 29.97 in 10.0 mi Calm Calm - N/A   Mostly Cloudy
2:15 AM 66.2 °F 64.4 °F 94% 29.97 in 10.0 mi Calm Calm - N/A   Partly Cloudy
2:35 AM 66.2 °F 64.4 °F 94% 29.98 in 10.0 mi NW 3.5 mph - N/A   Mostly Cloudy
2:55 AM 66.2 °F 64.4 °F 94% 29.98 in 10.0 mi NW 3.5 mph - N/A   Mostly Cloudy
3:15 AM 66.2 °F 64.4 °F 94% 29.99 in 10.0 mi North 4.6 mph - N/A   Unknown
3:35 AM 66.2 °F 60.8 °F 83% 29.99 in 10.0 mi North 3.5 mph - N/A   Mostly Cloudy
3:55 AM 64.4 °F 60.8 °F 88% 30.00 in 10.0 mi North 3.5 mph - N/A   Mostly Cloudy
4:15 AM 64.4 °F 60.8 °F 88% 29.99 in 10.0 mi Calm Calm - N/A   Unknown
4:35 AM 64.4 °F 60.8 °F 88% 30.00 in 10.0 mi Variable 3.5 mph - N/A   Mostly Cloudy
4:55 AM 64.4 °F 55.4 °F 73% 30.00 in 10.0 mi NNE 4.6 mph - N/A   Mostly Cloudy
5:15 AM 62.6 °F 55.4 °F 77% 30.02 in 10.0 mi Calm Calm - N/A   Mostly Cloudy
5:35 AM 62.6 °F 55.4 °F 77% 30.02 in 10.0 mi Calm Calm - N/A   Mostly Cloudy
5:55 AM 62.6 °F 55.4 °F 77% 30.03 in 10.0 mi Calm Calm - N/A   Partly Cloudy
6:15 AM 60.8 °F 57.2 °F 88% 30.03 in 10.0 mi NW 3.5 mph - N/A   Clear
6:35 AM 62.6 °F 57.2 °F 82% 30.04 in 10.0 mi North 3.5 mph - N/A   Clear
6:55 AM 62.6 °F 57.2 °F 82% 30.04 in 10.0 mi NNE 3.5 mph - N/A   Clear
7:15 AM 62.6 °F 57.2 °F 82% 30.04 in 10.0 mi Calm Calm - N/A   Clear
7:35 AM 64.4 °F 57.2 °F 77% 30.05 in 10.0 mi North 4.6 mph - N/A   Clear
7:55 AM 64.4 °F 55.4 °F 73% 30.06 in 10.0 mi NNE 8.1 mph - N/A   Partly Cloudy
8:15 AM 64.4 °F 55.4 °F 73% 30.06 in 10.0 mi Variable 5.8 mph - N/A   Partly Cloudy
8:35 AM 66.2 °F 55.4 °F 68% 30.06 in 10.0 mi Variable 4.6 mph - N/A   Clear
8:55 AM 68.0 °F 55.4 °F 64% 30.06 in 10.0 mi North 3.5 mph - N/A   Clear
9:15 AM 69.8 °F 53.6 °F 56% 30.06 in 10.0 mi North 5.8 mph - N/A   Clear
9:35 AM 69.8 °F 51.8 °F 53% 30.07 in 10.0 mi North 5.8 mph - N/A   Clear
9:55 AM 69.8 °F 51.8 °F 53% 30.07 in 10.0 mi Variable 5.8 mph - N/A   Clear
10:15 AM 71.6 °F 51.8 °F 50% 30.08 in 10.0 mi North 8.1 mph - N/A   Clear
10:35 AM 71.6 °F 51.8 °F 50% 30.08 in 10.0 mi NE 3.5 mph - N/A   Clear
10:55 AM 73.4 °F 51.8 °F 47% 30.07 in 10.0 mi Variable 3.5 mph - N/A   Clear
11:15 AM 73.4 °F 51.8 °F 47% 30.07 in 10.0 mi North 3.5 mph - N/A   Clear
11:35 AM 73.4 °F 53.6 °F 50% 30.07 in 10.0 mi Variable 4.6 mph - N/A   Clear
11:55 AM 75.2 °F 55.4 °F 50% 30.07 in 10.0 mi Variable 5.8 mph - N/A   Clear
12:15 PM 75.2 °F 53.6 °F 47% 30.06 in 10.0 mi WSW 3.5 mph - N/A   Clear
12:35 PM 77.0 °F 55.4 °F 47% 30.06 in 10.0 mi Variable 4.6 mph - N/A   Clear
12:55 PM 75.2 °F 55.4 °F 50% 30.06 in 10.0 mi Calm Calm - N/A   Clear
1:15 PM 77.0 °F 55.4 °F 47% 30.05 in 10.0 mi NW 4.6 mph - N/A   Clear
1:35 PM 75.2 °F 55.4 °F 50% 30.05 in 10.0 mi Variable 5.8 mph - N/A   Clear
1:55 PM 77.0 °F 55.4 °F 47% 30.05 in 10.0 mi Variable 4.6 mph - N/A   Clear
2:15 PM 78.8 °F 55.4 °F 44% 30.05 in 10.0 mi Variable 6.9 mph - N/A   Clear
2:35 PM 78.8 °F 55.4 °F 44% 30.05 in 10.0 mi NW 8.1 mph - N/A   Clear
2:55 PM 78.8 °F 55.4 °F 44% 30.05 in 10.0 mi WNW 8.1 mph - N/A   Clear
3:15 PM 78.8 °F 53.6 °F 42% 30.04 in 10.0 mi WNW 5.8 mph - N/A   Clear
3:35 PM 78.8 °F 55.4 °F 44% 30.04 in 10.0 mi Variable 5.8 mph - N/A   Clear
3:55 PM 75.2 °F 55.4 °F 50% 30.04 in 10.0 mi West 3.5 mph - N/A   Clear
4:15 PM 75.2 °F 57.2 °F 53% 30.04 in 10.0 mi WSW 5.8 mph - N/A   Clear
4:35 PM 75.2 °F 57.2 °F 53% 30.04 in 10.0 mi West 4.6 mph - N/A   Clear
4:55 PM 73.4 °F 57.2 °F 57% 30.05 in 10.0 mi WNW 3.5 mph - N/A   Clear
5:15 PM 73.4 °F 57.2 °F 57% 30.04 in 10.0 mi WNW 3.5 mph - N/A   Clear
5:35 PM 75.2 °F 57.2 °F 53% 30.04 in 10.0 mi West 4.6 mph - N/A   Clear
5:55 PM 73.4 °F 57.2 °F 57% 30.04 in 10.0 mi Calm Calm - N/A   Clear
6:15 PM 73.4 °F 59.0 °F 61% 30.05 in 10.0 mi WNW 3.5 mph - N/A   Clear
6:35 PM 71.6 °F 59.0 °F 64% 30.06 in 10.0 mi Calm Calm - N/A   Clear
6:55 PM 69.8 °F 60.8 °F 73% 30.06 in 10.0 mi Calm Calm - N/A   Clear
7:15 PM 69.8 °F 60.8 °F 73% 30.06 in 10.0 mi Calm Calm - N/A   Clear
7:35 PM 68.0 °F 62.6 °F 83% 30.07 in 10.0 mi Calm Calm - N/A   Clear
7:55 PM 66.2 °F 60.8 °F 83% 30.08 in 10.0 mi Calm Calm - N/A   Clear
8:15 PM 62.6 °F 60.8 °F 94% 30.08 in 10.0 mi Calm Calm - N/A   Clear
8:35 PM 60.8 °F 59.0 °F 94% 30.08 in 10.0 mi Calm Calm - N/A   Clear
8:55 PM 60.8 °F 57.2 °F 88% 30.09 in 10.0 mi Calm Calm - N/A   Clear
9:15 PM 60.8 °F 57.2 °F 88% 30.10 in 10.0 mi Calm Calm - N/A   Clear
9:35 PM 59.0 °F 57.2 °F 94% 30.11 in 10.0 mi Calm Calm - N/A   Clear
9:55 PM 59.0 °F 57.2 °F 94% 30.11 in 10.0 mi Calm Calm - N/A   Clear
10:15 PM 59.0 °F 57.2 °F 94% 30.10 in 10.0 mi Calm Calm - N/A   Clear
10:35 PM 59.0 °F 57.2 °F 94% 30.11 in 10.0 mi Calm Calm - N/A   Clear
10:55 PM 57.2 °F 57.2 °F 100% 30.11 in 10.0 mi Calm Calm - N/A   Clear
11:15 PM 57.2 °F 55.4 °F 94% 30.11 in 10.0 mi Calm Calm - N/A   Clear
11:35 PM 57.2 °F 55.4 °F 94% 30.12 in 10.0 mi Calm Calm - N/A   Clear
11:55 PM 55.4 °F 55.4 °F 100% 30.12 in 10.0 mi Calm Calm - N/A   Clear